Location: Red Bud (historical)
(37.7759°N, 88.4053°W)
Time: 19:39:25
(UTC+00:00)

Nauka - Pass Details

Date: 18 September 2021
Orbit: 417 x 423 km, 51.6° (Epoch: 24 October)

Event Time Altitude Azimuth Distance (km) Brightness Sun altitude
Rises 01:41:41 0° 256° (WSW) 2,353 ? -20.9°
Reaches altitude 10° 01:43:59 10° 269° (W) 1,494 ? -21.3°
Maximum altitude 01:46:53 27° 330° (NNW) 846 ? -21.9°
Enters shadow 01:48:13 21° 7° (N) 1,016 ? -22.1°
